Time,TemperatureF,DewpointF,PressureIn,WindDirection,WindDirectionDegrees,WindSpeedMPH,WindSpeedGustMPH,Humidity,HourlyPrecipIn,Conditions,Clouds,dailyrainin,SoftwareType,DateUTC
2013-01-02 00:03:00,24.1,19.1,30.25,ENE,60,1.0,4.0,81,0.00,,,0.00,Wunderground v.1.15,2013-01-02 06:03:00,
2013-01-02 00:09:00,24.1,19.1,30.24,NE,47,0.0,5.0,81,0.00,,,0.00,Wunderground v.1.15,2013-01-02 06:09:00,
2013-01-02 00:15:00,24.0,19.3,30.24,NE,40,2.0,3.0,82,0.00,,,0.00,Wunderground v.1.15,2013-01-02 06:15:00,
2013-01-02 00:21:00,23.9,19.2,30.24,NW,319,1.0,2.0,82,0.00,,,0.00,Wunderground v.1.15,2013-01-02 06:21:00,
2013-01-02 00:26:00,23.8,19.4,30.24,NE,44,2.0,3.0,83,0.00,,,0.00,Wunderground v.1.15,2013-01-02 06:26:00,
2013-01-02 00:32:00,23.7,19.3,30.25,NNE,20,5.0,5.0,83,0.00,,,0.00,Wunderground v.1.15,2013-01-02 06:32:00,
2013-01-02 00:38:00,23.5,19.1,30.24,NE,43,2.0,5.0,83,0.00,,,0.00,Wunderground v.1.15,2013-01-02 06:38:00,
2013-01-02 00:44:00,23.4,19.0,30.24,NE,41,1.0,2.0,83,0.00,,,0.00,Wunderground v.1.15,2013-01-02 06:44:00,
2013-01-02 00:49:00,23.3,19.2,30.25,WNW,298,1.0,3.0,84,0.00,,,0.00,Wunderground v.1.15,2013-01-02 06:49:00,
2013-01-02 00:55:00,23.2,19.1,30.25,NE,48,2.0,3.0,84,0.00,,,0.00,Wunderground v.1.15,2013-01-02 06:55:00,
2013-01-02 01:00:00,23.0,18.9,30.24,NE,49,0.0,1.0,84,0.00,,,0.00,Wunderground v.1.15,2013-01-02 07:00:00,
2013-01-02 01:06:00,22.9,18.8,30.25,NE,47,0.0,2.0,84,0.00,,,0.00,Wunderground v.1.15,2013-01-02 07:06:00,
2013-01-02 01:12:00,22.8,19.0,30.24,NE,37,2.0,2.0,85,0.00,,,0.00,Wunderground v.1.15,2013-01-02 07:12:00,
2013-01-02 01:18:00,22.7,18.9,30.24,ENE,57,2.0,3.0,85,0.00,,,0.00,Wunderground v.1.15,2013-01-02 07:18:00,
2013-01-02 01:24:00,22.7,18.9,30.25,NNE,32,1.0,1.0,85,0.00,,,0.00,Wunderground v.1.15,2013-01-02 07:24:00,
2013-01-02 01:30:00,22.4,18.8,30.25,NNE,28,0.0,0.0,86,0.00,,,0.00,Wunderground v.1.15,2013-01-02 07:30:00,
2013-01-02 01:36:00,22.2,18.7,30.26,North,360,1.0,2.0,86,0.00,,,0.00,Wunderground v.1.15,2013-01-02 07:36:00,
2013-01-02 01:42:00,22.2,18.7,30.26,NNE,30,0.0,2.0,86,0.00,,,0.00,Wunderground v.1.15,2013-01-02 07:42:00,
2013-01-02 01:47:00,22.3,18.5,30.25,NNW,335,1.0,3.0,85,0.00,,,0.00,Wunderground v.1.15,2013-01-02 07:47:00,
2013-01-02 01:53:00,22.3,18.5,30.25,NE,43,2.0,2.0,85,0.00,,,0.00,Wunderground v.1.15,2013-01-02 07:53:00,
2013-01-02 01:59:00,22.3,18.5,30.25,NE,50,2.0,3.0,85,0.00,,,0.00,Wunderground v.1.15,2013-01-02 07:59:00,
2013-01-02 02:04:00,22.3,18.7,30.26,NNW,339,2.0,4.0,86,0.00,,,0.00,Wunderground v.1.15,2013-01-02 08:04:00,
2013-01-02 02:09:00,22.3,18.7,30.26,NNE,28,2.0,8.0,86,0.00,,,0.00,Wunderground v.1.15,2013-01-02 08:09:00,
2013-01-02 02:14:00,22.4,18.6,30.27,NNW,329,2.0,6.0,85,0.00,,,0.00,Wunderground v.1.15,2013-01-02 08:14:00,
2013-01-02 02:19:00,22.4,18.6,30.27,NW,325,2.0,6.0,85,0.00,,,0.00,Wunderground v.1.15,2013-01-02 08:19:00,
2013-01-02 02:24:00,22.4,18.3,30.27,NE,44,3.0,6.0,84,0.00,,,0.00,Wunderground v.1.15,2013-01-02 08:24:00,
2013-01-02 02:29:00,22.4,18.0,30.26,NE,49,4.0,7.0,83,0.00,,,0.00,Wunderground v.1.15,2013-01-02 08:29:00,
2013-01-02 02:34:00,22.4,17.7,30.27,NNE,29,3.0,7.0,82,0.00,,,0.00,Wunderground v.1.15,2013-01-02 08:34:00,
2013-01-02 02:39:00,22.3,17.6,30.27,NE,50,2.0,7.0,82,0.00,,,0.00,Wunderground v.1.15,2013-01-02 08:39:00,
2013-01-02 02:44:00,22.1,17.7,30.27,NE,34,2.0,5.0,83,0.00,,,0.00,Wunderground v.1.15,2013-01-02 08:44:00,
2013-01-02 02:49:00,21.9,17.8,30.27,ENE,58,2.0,6.0,84,0.00,,,0.00,Wunderground v.1.15,2013-01-02 08:49:00,
2013-01-02 02:54:00,21.6,17.5,30.27,NE,41,0.0,3.0,84,0.00,,,0.00,Wunderground v.1.15,2013-01-02 08:54:00,
2013-01-02 02:59:00,21.6,17.8,30.26,NE,50,1.0,3.0,85,0.00,,,0.00,Wunderground v.1.15,2013-01-02 08:59:00,
2013-01-02 03:04:00,21.5,17.7,30.26,ENE,74,0.0,3.0,85,0.00,,,0.00,Wunderground v.1.15,2013-01-02 09:04:00,
2013-01-02 03:09:00,21.2,17.4,30.26,NE,42,0.0,3.0,85,0.00,,,0.00,Wunderground v.1.15,2013-01-02 09:09:00,
2013-01-02 03:14:00,21.1,17.6,30.26,ENE,73,0.0,4.0,86,0.00,,,0.00,Wunderground v.1.15,2013-01-02 09:14:00,
2013-01-02 03:19:00,21.0,17.2,30.27,NE,41,2.0,4.0,85,0.00,,,0.00,Wunderground v.1.15,2013-01-02 09:19:00,
2013-01-02 03:24:00,20.9,17.1,30.26,NE,42,3.0,4.0,85,0.00,,,0.00,Wunderground v.1.15,2013-01-02 09:24:00,
2013-01-02 03:29:00,21.0,16.9,30.26,NNE,32,1.0,5.0,84,0.00,,,0.00,Wunderground v.1.15,2013-01-02 09:29:00,
2013-01-02 03:34:00,20.9,16.8,30.26,NE,43,2.0,3.0,84,0.00,,,0.00,Wunderground v.1.15,2013-01-02 09:34:00,
2013-01-02 03:39:00,20.8,16.7,30.25,NE,41,3.0,3.0,84,0.00,,,0.00,Wunderground v.1.15,2013-01-02 09:39:00,
2013-01-02 03:44:00,20.8,16.7,30.26,NE,53,2.0,3.0,84,0.00,,,0.00,Wunderground v.1.15,2013-01-02 09:44:00,
2013-01-02 03:49:00,20.6,16.8,30.25,NE,37,2.0,3.0,85,0.00,,,0.00,Wunderground v.1.15,2013-01-02 09:49:00,
2013-01-02 03:55:00,20.4,16.6,30.26,NNE,32,1.0,4.0,85,0.00,,,0.00,Wunderground v.1.15,2013-01-02 09:55:00,
2013-01-02 04:00:00,20.2,16.1,30.26,North,349,1.0,1.0,84,0.00,,,0.00,Wunderground v.1.15,2013-01-02 10:00:00,
2013-01-02 04:05:00,20.3,16.0,30.26,NE,43,3.0,5.0,83,0.00,,,0.00,Wunderground v.1.15,2013-01-02 10:05:00,
2013-01-02 04:10:00,20.5,16.2,30.26,NE,43,2.0,3.0,83,0.00,,,0.00,Wunderground v.1.15,2013-01-02 10:10:00,
2013-01-02 04:15:00,20.5,15.9,30.25,NE,36,2.0,5.0,82,0.00,,,0.00,Wunderground v.1.15,2013-01-02 10:15:00,
2013-01-02 04:20:00,20.5,15.9,30.25,NE,50,2.0,3.0,82,0.00,,,0.00,Wunderground v.1.15,2013-01-02 10:20:00,
2013-01-02 04:25:00,20.4,15.5,30.26,NE,51,2.0,5.0,81,0.00,,,0.00,Wunderground v.1.15,2013-01-02 10:25:00,
2013-01-02 04:30:00,20.5,15.6,30.27,NE,47,1.0,3.0,81,0.00,,,0.00,Wunderground v.1.15,2013-01-02 10:30:00,
2013-01-02 04:35:00,20.4,15.5,30.26,NNE,30,5.0,5.0,81,0.00,,,0.00,Wunderground v.1.15,2013-01-02 10:35:00,
2013-01-02 04:40:00,20.3,15.1,30.26,NE,53,0.0,2.0,80,0.00,,,0.00,Wunderground v.1.15,2013-01-02 10:40:00,
2013-01-02 04:45:00,20.1,14.9,30.26,NE,49,2.0,4.0,80,0.00,,,0.00,Wunderground v.1.15,2013-01-02 10:45:00,
2013-01-02 04:50:00,20.0,15.1,30.26,NE,43,2.0,2.0,81,0.00,,,0.00,Wunderground v.1.15,2013-01-02 10:50:00,
2013-01-02 04:55:00,19.8,14.9,30.26,NE,47,2.0,5.0,81,0.00,,,0.00,Wunderground v.1.15,2013-01-02 10:55:00,
2013-01-02 05:00:00,19.7,14.8,30.27,NE,50,1.0,2.0,81,0.00,,,0.00,Wunderground v.1.15,2013-01-02 11:00:00,
2013-01-02 05:05:00,19.7,14.8,30.27,ENE,58,2.0,3.0,81,0.00,,,0.00,Wunderground v.1.15,2013-01-02 11:05:00,
2013-01-02 05:10:00,19.5,14.9,30.26,NE,56,1.0,1.0,82,0.00,,,0.00,Wunderground v.1.15,2013-01-02 11:10:00,
2013-01-02 05:15:00,19.3,14.7,30.26,NE,56,1.0,2.0,82,0.00,,,0.00,Wunderground v.1.15,2013-01-02 11:15:00,
2013-01-02 05:20:00,19.3,15.0,30.27,NE,47,1.0,1.0,83,0.00,,,0.00,Wunderground v.1.15,2013-01-02 11:20:00,
2013-01-02 05:25:00,19.2,14.9,30.27,NE,36,0.0,2.0,83,0.00,,,0.00,Wunderground v.1.15,2013-01-02 11:25:00,
2013-01-02 05:30:00,19.2,14.9,30.27,NE,47,0.0,0.0,83,0.00,,,0.00,Wunderground v.1.15,2013-01-02 11:30:00,
2013-01-02 05:35:00,19.0,14.7,30.27,NE,34,0.0,1.0,83,0.00,,,0.00,Wunderground v.1.15,2013-01-02 11:35:00,
2013-01-02 05:40:00,18.9,14.9,30.27,NE,55,2.0,2.0,84,0.00,,,0.00,Wunderground v.1.15,2013-01-02 11:40:00,
2013-01-02 05:45:00,18.7,14.7,30.27,NE,34,1.0,2.0,84,0.00,,,0.00,Wunderground v.1.15,2013-01-02 11:45:00,
2013-01-02 05:50:00,18.6,14.6,30.28,NNE,20,0.0,1.0,84,0.00,,,0.00,Wunderground v.1.15,2013-01-02 11:50:00,
2013-01-02 05:55:00,18.6,14.6,30.29,NNE,32,0.0,1.0,84,0.00,,,0.00,Wunderground v.1.15,2013-01-02 11:55:00,
2013-01-02 06:00:00,18.8,14.8,30.29,NE,41,0.0,1.0,84,0.00,,,0.00,Wunderground v.1.15,2013-01-02 12:00:00,
2013-01-02 06:05:00,19.0,14.7,30.28,NE,34,1.0,4.0,83,0.00,,,0.00,Wunderground v.1.15,2013-01-02 12:05:00,
2013-01-02 06:10:00,19.1,14.8,30.28,NE,48,1.0,2.0,83,0.00,,,0.00,Wunderground v.1.15,2013-01-02 12:10:00,
2013-01-02 06:15:00,19.3,15.0,30.28,North,11,3.0,3.0,83,0.00,,,0.00,Wunderground v.1.15,2013-01-02 12:15:00,
2013-01-02 06:20:00,19.3,14.7,30.28,NE,38,1.0,2.0,82,0.00,,,0.00,Wunderground v.1.15,2013-01-02 12:20:00,
2013-01-02 06:25:00,19.4,14.5,30.28,NE,49,3.0,5.0,81,0.00,,,0.00,Wunderground v.1.15,2013-01-02 12:25:00,
2013-01-02 06:30:00,19.4,14.5,30.29,ENE,61,1.0,2.0,81,0.00,,,0.00,Wunderground v.1.15,2013-01-02 12:30:00,
2013-01-02 06:35:00,19.3,14.4,30.29,ENE,64,0.0,2.0,81,0.00,,,0.00,Wunderground v.1.15,2013-01-02 12:35:00,
2013-01-02 06:40:00,19.2,14.3,30.29,ESE,103,1.0,2.0,81,0.00,,,0.00,Wunderground v.1.15,2013-01-02 12:40:00,
2013-01-02 06:45:00,19.2,14.3,30.29,NNE,16,2.0,3.0,81,0.00,,,0.00,Wunderground v.1.15,2013-01-02 12:45:00,
2013-01-02 06:50:00,19.2,14.3,30.29,NE,43,2.0,3.0,81,0.00,,,0.00,Wunderground v.1.15,2013-01-02 12:50:00,
2013-01-02 06:55:00,19.3,14.7,30.29,NNW,345,1.0,3.0,82,0.00,,,0.00,Wunderground v.1.15,2013-01-02 12:55:00,
2013-01-02 07:00:00,19.3,14.7,30.29,NNE,32,1.0,2.0,82,0.00,,,0.00,Wunderground v.1.15,2013-01-02 13:00:00,
2013-01-02 07:05:00,19.4,15.1,30.29,NE,49,2.0,4.0,83,0.00,,,0.00,Wunderground v.1.15,2013-01-02 13:05:00,
2013-01-02 07:10:00,19.4,15.1,30.30,NNE,30,0.0,1.0,83,0.00,,,0.00,Wunderground v.1.15,2013-01-02 13:10:00,
2013-01-02 07:15:00,19.3,15.0,30.30,NE,39,0.0,2.0,83,0.00,,,0.00,Wunderground v.1.15,2013-01-02 13:15:00,
2013-01-02 07:20:00,19.3,15.0,30.29,NE,40,1.0,2.0,83,0.00,,,0.00,Wunderground v.1.15,2013-01-02 13:20:00,
2013-01-02 07:25:00,19.2,14.9,30.30,ENE,65,3.0,4.0,83,0.00,,,0.00,Wunderground v.1.15,2013-01-02 13:25:00,
2013-01-02 07:30:00,19.2,14.6,30.29,NE,39,3.0,3.0,82,0.00,,,0.00,Wunderground v.1.15,2013-01-02 13:30:00,
2013-01-02 07:35:00,19.3,14.7,30.29,ENE,61,4.0,5.0,82,0.00,,,0.00,Wunderground v.1.15,2013-01-02 13:35:00,
2013-01-02 07:40:00,19.3,14.4,30.29,NE,49,3.0,3.0,81,0.00,,,0.00,Wunderground v.1.15,2013-01-02 13:40:00,
2013-01-02 07:45:00,19.4,14.8,30.30,NE,37,1.0,4.0,82,0.00,,,0.00,Wunderground v.1.15,2013-01-02 13:45:00,
2013-01-02 07:50:00,19.4,14.8,30.31,NE,44,1.0,2.0,82,0.00,,,0.00,Wunderground v.1.15,2013-01-02 13:50:00,
2013-01-02 07:55:00,19.5,14.9,30.31,NE,47,1.0,4.0,82,0.00,,,0.00,Wunderground v.1.15,2013-01-02 13:55:00,
2013-01-02 08:00:00,19.8,15.2,30.31,NE,47,2.0,2.0,82,0.00,,,0.00,Wunderground v.1.15,2013-01-02 14:00:00,
2013-01-02 08:05:00,20.1,15.2,30.31,NE,47,4.0,5.0,81,0.00,,,0.00,Wunderground v.1.15,2013-01-02 14:05:00,
2013-01-02 08:10:00,20.2,15.3,30.31,NE,49,4.0,4.0,81,0.00,,,0.00,Wunderground v.1.15,2013-01-02 14:10:00,
2013-01-02 08:15:00,20.1,14.9,30.31,NNE,20,0.0,5.0,80,0.00,,,0.00,Wunderground v.1.15,2013-01-02 14:15:00,
2013-01-02 08:20:00,20.1,14.9,30.31,NE,34,3.0,3.0,80,0.00,,,0.00,Wunderground v.1.15,2013-01-02 14:20:00,
2013-01-02 08:25:00,20.1,14.9,30.31,NE,53,3.0,5.0,80,0.00,,,0.00,Wunderground v.1.15,2013-01-02 14:25:00,
2013-01-02 08:30:00,20.4,15.5,30.31,NE,50,2.0,2.0,81,0.00,,,0.00,Wunderground v.1.15,2013-01-02 14:30:00,
2013-01-02 08:35:00,20.6,15.4,30.31,NNW,329,1.0,5.0,80,0.00,,,0.00,Wunderground v.1.15,2013-01-02 14:35:00,
2013-01-02 08:40:00,20.7,15.5,30.32,North,359,1.0,2.0,80,0.00,,,0.00,Wunderground v.1.15,2013-01-02 14:40:00,
2013-01-02 08:45:00,20.9,15.7,30.31,NE,47,1.0,4.0,80,0.00,,,0.00,Wunderground v.1.15,2013-01-02 14:45:00,
2013-01-02 08:50:00,21.2,15.7,30.31,NNE,30,2.0,3.0,79,0.00,,,0.00,Wunderground v.1.15,2013-01-02 14:50:00,
2013-01-02 08:55:00,21.3,15.8,30.31,NW,310,2.0,6.0,79,0.00,,,0.00,Wunderground v.1.15,2013-01-02 14:55:00,
2013-01-02 09:00:00,21.6,16.1,30.31,NE,36,4.0,4.0,79,0.00,,,0.00,Wunderground v.1.15,2013-01-02 15:00:00,
2013-01-02 09:05:00,21.9,16.1,30.31,NNE,16,1.0,6.0,78,0.00,,,0.00,Wunderground v.1.15,2013-01-02 15:05:00,
2013-01-02 09:10:00,22.4,16.0,30.32,NNW,346,0.0,4.0,76,0.00,,,0.00,Wunderground v.1.15,2013-01-02 15:10:00,
2013-01-02 09:15:00,22.7,15.7,30.31,ESE,122,2.0,5.0,74,0.00,,,0.00,Wunderground v.1.15,2013-01-02 15:15:00,
2013-01-02 09:20:00,22.8,15.8,30.32,NE,42,2.0,6.0,74,0.00,,,0.00,Wunderground v.1.15,2013-01-02 15:20:00,
2013-01-02 09:25:00,23.1,16.0,30.31,ENE,75,4.0,6.0,74,0.00,,,0.00,Wunderground v.1.15,2013-01-02 15:25:00,
2013-01-02 09:30:00,23.2,15.8,30.32,NE,49,3.0,3.0,73,0.00,,,0.00,Wunderground v.1.15,2013-01-02 15:30:00,
2013-01-02 09:35:00,23.4,15.7,30.32,ENE,63,1.0,5.0,72,0.00,,,0.00,Wunderground v.1.15,2013-01-02 15:35:00,
2013-01-02 09:40:00,23.5,16.1,30.32,SSE,160,0.0,3.0,73,0.00,,,0.00,Wunderground v.1.15,2013-01-02 15:40:00,
2013-01-02 09:45:00,24.0,16.0,30.33,ESE,108,3.0,5.0,71,0.00,,,0.00,Wunderground v.1.15,2013-01-02 15:45:00,
2013-01-02 09:50:00,24.3,15.9,30.33,ENE,63,0.0,2.0,70,0.00,,,0.00,Wunderground v.1.15,2013-01-02 15:50:00,
2013-01-02 09:55:00,24.5,15.8,30.32,NNE,30,1.0,5.0,69,0.00,,,0.00,Wunderground v.1.15,2013-01-02 15:55:00,
2013-01-02 10:00:00,24.7,16.0,30.33,NE,52,2.0,4.0,69,0.00,,,0.00,Wunderground v.1.15,2013-01-02 16:00:00,
2013-01-02 10:05:00,24.6,16.2,30.32,NE,43,3.0,6.0,70,0.00,,,0.00,Wunderground v.1.15,2013-01-02 16:05:00,
2013-01-02 10:10:00,24.8,16.4,30.32,NE,46,1.0,3.0,70,0.00,,,0.00,Wunderground v.1.15,2013-01-02 16:10:00,
2013-01-02 10:15:00,25.0,16.3,30.33,NNE,32,2.0,5.0,69,0.00,,,0.00,Wunderground v.1.15,2013-01-02 16:15:00,
2013-01-02 10:20:00,25.2,16.8,30.32,ENE,63,0.0,4.0,70,0.00,,,0.00,Wunderground v.1.15,2013-01-02 16:20:00,
2013-01-02 10:25:00,25.4,16.6,30.32,SSW,200,1.0,6.0,69,0.00,,,0.00,Wunderground v.1.15,2013-01-02 16:25:00,
2013-01-02 10:30:00,25.9,17.5,30.32,NE,52,2.0,2.0,70,0.00,,,0.00,Wunderground v.1.15,2013-01-02 16:30:00,
2013-01-02 10:35:00,26.2,17.1,30.32,SE,143,2.0,6.0,68,0.00,,,0.00,Wunderground v.1.15,2013-01-02 16:35:00,
2013-01-02 10:40:00,26.3,16.5,30.32,NW,321,2.0,4.0,66,0.00,,,0.00,Wunderground v.1.15,2013-01-02 16:40:00,
2013-01-02 10:45:00,26.5,16.0,30.32,NE,42,2.0,6.0,64,0.00,,,0.00,Wunderground v.1.15,2013-01-02 16:45:00,
2013-01-02 10:50:00,26.6,16.1,30.32,NE,50,3.0,6.0,64,0.00,,,0.00,Wunderground v.1.15,2013-01-02 16:50:00,
2013-01-02 10:56:00,27.0,16.8,30.31,NNE,26,3.0,6.0,65,0.00,,,0.00,Wunderground v.1.15,2013-01-02 16:56:00,
2013-01-02 11:01:00,27.3,16.7,30.31,NE,40,0.0,4.0,64,0.00,,,0.00,Wunderground v.1.15,2013-01-02 17:01:00,
2013-01-02 11:06:00,27.5,16.5,30.31,SSE,155,2.0,4.0,63,0.00,,,0.00,Wunderground v.1.15,2013-01-02 17:06:00,
2013-01-02 11:11:00,28.0,15.9,30.30,NNW,340,2.0,5.0,60,0.00,,,0.00,Wunderground v.1.15,2013-01-02 17:11:00,
2013-01-02 11:16:00,28.1,17.1,30.30,NE,36,1.0,7.0,63,0.00,,,0.00,Wunderground v.1.15,2013-01-02 17:16:00,
2013-01-02 11:21:00,28.3,16.9,30.29,NNE,18,1.0,3.0,62,0.00,,,0.00,Wunderground v.1.15,2013-01-02 17:21:00,
2013-01-02 11:26:00,28.6,16.1,30.28,NE,53,3.0,4.0,59,0.00,,,0.00,Wunderground v.1.15,2013-01-02 17:26:00,
2013-01-02 11:31:00,29.0,17.2,30.29,SSE,151,1.0,6.0,61,0.00,,,0.00,Wunderground v.1.15,2013-01-02 17:31:00,
2013-01-02 11:36:00,29.4,16.8,30.29,NE,48,0.0,6.0,59,0.00,,,0.00,Wunderground v.1.15,2013-01-02 17:36:00,
2013-01-02 11:41:00,29.4,16.8,30.28,NE,51,1.0,2.0,59,0.00,,,0.00,Wunderground v.1.15,2013-01-02 17:41:00,
2013-01-02 11:46:00,29.7,16.7,30.28,SW,228,0.0,3.0,58,0.00,,,0.00,Wunderground v.1.15,2013-01-02 17:46:00,
2013-01-02 11:51:00,30.2,17.6,30.28,NE,50,3.0,3.0,59,0.00,,,0.00,Wunderground v.1.15,2013-01-02 17:51:00,
2013-01-02 11:56:00,30.4,17.4,30.28,NNE,18,3.0,4.0,58,0.00,,,0.00,Wunderground v.1.15,2013-01-02 17:56:00,
2013-01-02 12:01:00,30.6,16.7,30.28,ESE,113,3.0,5.0,56,0.00,,,0.00,Wunderground v.1.15,2013-01-02 18:01:00,
2013-01-02 12:06:00,31.1,18.0,30.27,NE,53,0.0,5.0,58,0.00,,,0.00,Wunderground v.1.15,2013-01-02 18:06:00,
2013-01-02 12:11:00,31.9,18.0,30.27,SE,135,1.0,4.0,56,0.00,,,0.00,Wunderground v.1.15,2013-01-02 18:11:00,
2013-01-02 12:16:00,31.8,18.3,30.26,NE,53,2.0,6.0,57,0.00,,,0.00,Wunderground v.1.15,2013-01-02 18:16:00,
2013-01-02 12:21:00,31.2,16.9,30.26,NNW,329,2.0,3.0,55,0.00,,,0.00,Wunderground v.1.15,2013-01-02 18:21:00,
2013-01-02 12:26:00,30.9,16.6,30.26,NE,54,0.0,4.0,55,0.00,,,0.00,Wunderground v.1.15,2013-01-02 18:26:00,
2013-01-02 12:31:00,31.0,17.1,30.26,NE,53,1.0,1.0,56,0.00,,,0.00,Wunderground v.1.15,2013-01-02 18:31:00,
2013-01-02 12:36:00,31.0,17.1,30.26,ESE,106,2.0,4.0,56,0.00,,,0.00,Wunderground v.1.15,2013-01-02 18:36:00,
2013-01-02 12:41:00,31.1,16.8,30.26,ESE,113,0.0,1.0,55,0.00,,,0.00,Wunderground v.1.15,2013-01-02 18:41:00,
2013-01-02 12:46:00,31.7,17.4,30.27,ENE,78,0.0,5.0,55,0.00,,,0.00,Wunderground v.1.15,2013-01-02 18:46:00,
2013-01-02 12:51:00,31.8,17.0,30.26,East,91,2.0,3.0,54,0.00,,,0.00,Wunderground v.1.15,2013-01-02 18:51:00,
2013-01-02 12:56:00,32.1,18.2,30.26,NE,40,1.0,5.0,56,0.00,,,0.00,Wunderground v.1.15,2013-01-02 18:56:00,
2013-01-02 13:01:00,32.5,18.1,30.26,NE,46,2.0,3.0,55,0.00,,,0.00,Wunderground v.1.15,2013-01-02 19:01:00,
2013-01-02 13:06:00,32.5,17.7,30.26,NW,326,4.0,6.0,54,0.00,,,0.00,Wunderground v.1.15,2013-01-02 19:06:00,
2013-01-02 13:11:00,32.8,17.5,30.26,NE,41,2.0,4.0,53,0.00,,,0.00,Wunderground v.1.15,2013-01-02 19:11:00,
2013-01-02 13:16:00,33.1,18.7,30.25,NNW,344,1.0,4.0,55,0.00,,,0.00,Wunderground v.1.15,2013-01-02 19:16:00,
2013-01-02 13:21:00,32.9,16.7,30.25,NW,319,1.0,2.0,51,0.00,,,0.00,Wunderground v.1.15,2013-01-02 19:21:00,
2013-01-02 13:26:00,33.0,16.8,30.25,NNE,30,0.0,3.0,51,0.00,,,0.00,Wunderground v.1.15,2013-01-02 19:26:00,
2013-01-02 13:31:00,33.4,17.6,30.24,West,262,0.0,1.0,52,0.00,,,0.00,Wunderground v.1.15,2013-01-02 19:31:00,
2013-01-02 13:36:00,33.5,16.8,30.24,NE,39,2.0,4.0,50,0.00,,,0.00,Wunderground v.1.15,2013-01-02 19:36:00,
2013-01-02 13:41:00,33.6,16.9,30.24,NNW,328,2.0,3.0,50,0.00,,,0.00,Wunderground v.1.15,2013-01-02 19:41:00,
2013-01-02 13:46:00,33.4,15.8,30.24,NW,312,3.0,4.0,48,0.00,,,0.00,Wunderground v.1.15,2013-01-02 19:46:00,
2013-01-02 13:51:00,33.2,16.5,30.24,ENE,76,0.0,4.0,50,0.00,,,0.00,Wunderground v.1.15,2013-01-02 19:51:00,
2013-01-02 13:56:00,33.3,17.1,30.24,NW,309,2.0,4.0,51,0.00,,,0.00,Wunderground v.1.15,2013-01-02 19:56:00,
2013-01-02 14:01:00,33.3,16.6,30.24,North,11,3.0,4.0,50,0.00,,,0.00,Wunderground v.1.15,2013-01-02 20:01:00,
2013-01-02 14:06:00,33.0,16.4,30.24,ENE,63,2.0,4.0,50,0.00,,,0.00,Wunderground v.1.15,2013-01-02 20:06:00,
2013-01-02 14:11:00,33.1,16.5,30.24,NE,39,1.0,3.0,50,0.00,,,0.00,Wunderground v.1.15,2013-01-02 20:11:00,
2013-01-02 14:16:00,33.0,17.7,30.23,NE,41,3.0,4.0,53,0.00,,,0.00,Wunderground v.1.15,2013-01-02 20:16:00,
2013-01-02 14:21:00,32.8,18.0,30.23,ENE,61,4.0,4.0,54,0.00,,,0.00,Wunderground v.1.15,2013-01-02 20:21:00,
2013-01-02 14:26:00,32.8,18.4,30.23,North,1,1.0,7.0,55,0.00,,,0.00,Wunderground v.1.15,2013-01-02 20:26:00,
2013-01-02 14:31:00,32.9,18.1,30.23,NW,321,0.0,3.0,54,0.00,,,0.00,Wunderground v.1.15,2013-01-02 20:31:00,
2013-01-02 14:36:00,32.9,17.6,30.23,NNW,342,2.0,3.0,53,0.00,,,0.00,Wunderground v.1.15,2013-01-02 20:36:00,
2013-01-02 14:41:00,32.8,18.0,30.23,NE,37,3.0,4.0,54,0.00,,,0.00,Wunderground v.1.15,2013-01-02 20:41:00,
2013-01-02 14:46:00,32.6,18.2,30.23,NE,46,3.0,5.0,55,0.00,,,0.00,Wunderground v.1.15,2013-01-02 20:46:00,
2013-01-02 14:51:00,32.7,17.9,30.23,NNE,27,3.0,3.0,54,0.00,,,0.00,Wunderground v.1.15,2013-01-02 20:51:00,
2013-01-02 14:56:00,33.0,19.0,30.23,NNE,18,1.0,3.0,56,0.00,,,0.00,Wunderground v.1.15,2013-01-02 20:56:00,
2013-01-02 15:01:00,32.9,18.1,30.24,NE,44,4.0,4.0,54,0.00,,,0.00,Wunderground v.1.15,2013-01-02 21:01:00,
2013-01-02 15:06:00,33.1,18.7,30.23,NNW,336,2.0,4.0,55,0.00,,,0.00,Wunderground v.1.15,2013-01-02 21:06:00,
2013-01-02 15:11:00,33.0,18.6,30.24,NNW,331,1.0,2.0,55,0.00,,,0.00,Wunderground v.1.15,2013-01-02 21:11:00,
2013-01-02 15:16:00,32.9,18.5,30.24,NNE,20,1.0,5.0,55,0.00,,,0.00,Wunderground v.1.15,2013-01-02 21:16:00,
2013-01-02 15:21:00,32.8,19.2,30.24,NNE,17,2.0,2.0,57,0.00,,,0.00,Wunderground v.1.15,2013-01-02 21:21:00,
2013-01-02 15:26:00,32.8,18.8,30.24,NE,50,1.0,3.0,56,0.00,,,0.00,Wunderground v.1.15,2013-01-02 21:26:00,
2013-01-02 15:31:00,32.6,19.0,30.24,NNW,334,1.0,3.0,57,0.00,,,0.00,Wunderground v.1.15,2013-01-02 21:31:00,
2013-01-02 15:36:00,32.5,18.5,30.25,NNW,330,2.0,3.0,56,0.00,,,0.00,Wunderground v.1.15,2013-01-02 21:36:00,
2013-01-02 15:41:00,32.3,17.9,30.25,NW,326,1.0,2.0,55,0.00,,,0.00,Wunderground v.1.15,2013-01-02 21:41:00,
2013-01-02 15:46:00,32.2,18.2,30.25,NNW,340,1.0,2.0,56,0.00,,,0.00,Wunderground v.1.15,2013-01-02 21:46:00,
2013-01-02 15:51:00,32.1,18.2,30.25,North,8,1.0,2.0,56,0.00,,,0.00,Wunderground v.1.15,2013-01-02 21:51:00,
2013-01-02 15:56:00,32.0,18.5,30.25,NNE,16,0.0,2.0,57,0.00,,,0.00,Wunderground v.1.15,2013-01-02 21:56:00,
2013-01-02 16:01:00,31.9,18.4,30.25,NW,321,0.0,2.0,57,0.00,,,0.00,Wunderground v.1.15,2013-01-02 22:01:00,
2013-01-02 16:06:00,31.8,19.1,30.25,NE,34,0.0,2.0,59,0.00,,,0.00,Wunderground v.1.15,2013-01-02 22:06:00,
2013-01-02 16:11:00,31.6,18.5,30.25,North,350,1.0,3.0,58,0.00,,,0.00,Wunderground v.1.15,2013-01-02 22:11:00,
2013-01-02 16:16:00,31.5,19.2,30.25,NNW,327,0.0,3.0,60,0.00,,,0.00,Wunderground v.1.15,2013-01-02 22:16:00,
2013-01-02 16:21:00,31.4,19.5,30.25,NNW,332,0.0,1.0,61,0.00,,,0.00,Wunderground v.1.15,2013-01-02 22:21:00,
2013-01-02 16:26:00,31.3,19.0,30.25,NNW,330,1.0,2.0,60,0.00,,,0.00,Wunderground v.1.15,2013-01-02 22:26:00,
2013-01-02 16:31:00,31.1,19.2,30.26,NNW,327,0.0,1.0,61,0.00,,,0.00,Wunderground v.1.15,2013-01-02 22:31:00,
2013-01-02 16:36:00,31.0,19.9,30.26,NE,41,0.0,1.0,63,0.00,,,0.00,Wunderground v.1.15,2013-01-02 22:36:00,
2013-01-02 16:41:00,30.9,19.8,30.26,NE,46,0.0,1.0,63,0.00,,,0.00,Wunderground v.1.15,2013-01-02 22:41:00,
2013-01-02 16:46:00,30.7,19.2,30.26,North,354,0.0,1.0,62,0.00,,,0.00,Wunderground v.1.15,2013-01-02 22:46:00,
2013-01-02 16:51:00,30.6,19.9,30.26,North,11,0.0,0.0,64,0.00,,,0.00,Wunderground v.1.15,2013-01-02 22:51:00,
2013-01-02 16:56:00,30.5,19.8,30.26,NNE,12,0.0,1.0,64,0.00,,,0.00,Wunderground v.1.15,2013-01-02 22:56:00,
2013-01-02 17:01:00,30.3,19.9,30.26,North,11,0.0,0.0,65,0.00,,,0.00,Wunderground v.1.15,2013-01-02 23:01:00,
2013-01-02 17:06:00,30.2,19.8,30.26,North,11,0.0,0.0,65,0.00,,,0.00,Wunderground v.1.15,2013-01-02 23:06:00,
2013-01-02 17:11:00,30.1,19.7,30.26,North,11,0.0,0.0,65,0.00,,,0.00,Wunderground v.1.15,2013-01-02 23:11:00,
2013-01-02 17:16:00,29.8,19.5,30.27,NNE,12,0.0,0.0,65,0.00,,,0.00,Wunderground v.1.15,2013-01-02 23:16:00,
2013-01-02 17:21:00,29.7,19.0,30.27,North,11,0.0,0.0,64,0.00,,,0.00,Wunderground v.1.15,2013-01-02 23:21:00,
2013-01-02 17:26:00,29.7,19.4,30.27,North,11,0.0,0.0,65,0.00,,,0.00,Wunderground v.1.15,2013-01-02 23:26:00,
2013-01-02 17:31:00,29.6,19.6,30.27,NNE,12,0.0,0.0,66,0.00,,,0.00,Wunderground v.1.15,2013-01-02 23:31:00,
2013-01-02 17:37:00,29.4,19.8,30.27,North,11,0.0,0.0,67,0.00,,,0.00,Wunderground v.1.15,2013-01-02 23:37:00,
2013-01-02 17:41:00,29.2,19.9,30.27,North,11,0.0,0.0,68,0.00,,,0.00,Wunderground v.1.15,2013-01-02 23:41:00,
2013-01-02 17:46:00,28.9,20.0,30.27,NNE,12,0.0,0.0,69,0.00,,,0.00,Wunderground v.1.15,2013-01-02 23:46:00,
2013-01-02 17:51:00,28.6,19.7,30.28,NNE,12,0.0,0.0,69,0.00,,,0.00,Wunderground v.1.15,2013-01-02 23:51:00,
2013-01-02 17:56:00,28.2,19.7,30.27,North,11,0.0,0.0,70,0.00,,,0.00,Wunderground v.1.15,2013-01-02 23:56:00,
2013-01-02 18:01:00,27.8,19.9,30.28,NNE,12,0.0,0.0,72,0.00,,,0.00,Wunderground v.1.15,2013-01-03 00:01:00,
2013-01-02 18:06:00,27.8,19.6,30.27,North,11,0.0,0.0,71,0.00,,,0.00,Wunderground v.1.15,2013-01-03 00:06:00,
2013-01-02 18:11:00,27.8,19.3,30.27,North,11,0.0,0.0,70,0.00,,,0.00,Wunderground v.1.15,2013-01-03 00:11:00,
2013-01-02 18:16:00,27.6,19.1,30.28,North,11,0.0,0.0,70,0.00,,,0.00,Wunderground v.1.15,2013-01-03 00:16:00,
2013-01-02 18:21:00,27.3,19.1,30.28,NNE,12,0.0,0.0,71,0.00,,,0.00,Wunderground v.1.15,2013-01-03 00:21:00,
2013-01-02 18:27:00,27.1,19.3,30.28,North,11,0.0,0.0,72,0.00,,,0.00,Wunderground v.1.15,2013-01-03 00:27:00,
2013-01-02 18:32:00,27.0,19.5,30.28,North,11,0.0,0.0,73,0.00,,,0.00,Wunderground v.1.15,2013-01-03 00:32:00,
2013-01-02 18:38:00,26.8,19.3,30.28,North,11,0.0,0.0,73,0.00,,,0.00,Wunderground v.1.15,2013-01-03 00:38:00,
2013-01-02 18:43:00,26.6,20.1,30.28,North,11,0.0,0.0,76,0.00,,,0.00,Wunderground v.1.15,2013-01-03 00:43:00,
2013-01-02 18:48:00,26.4,19.5,30.28,North,11,0.0,0.0,75,0.00,,,0.00,Wunderground v.1.15,2013-01-03 00:48:00,
2013-01-02 18:53:00,26.0,19.5,30.28,North,11,0.0,0.0,76,0.00,,,0.00,Wunderground v.1.15,2013-01-03 00:53:00,
2013-01-02 18:58:00,25.5,19.6,30.28,NNE,12,0.0,0.0,78,0.00,,,0.00,Wunderground v.1.15,2013-01-03 00:58:00,
2013-01-02 19:03:00,25.4,19.5,30.28,North,11,0.0,0.0,78,0.00,,,0.00,Wunderground v.1.15,2013-01-03 01:03:00,
2013-01-02 19:08:00,25.1,18.9,30.28,North,11,0.0,0.0,77,0.00,,,0.00,Wunderground v.1.15,2013-01-03 01:08:00,
2013-01-02 19:13:00,24.6,18.7,30.28,North,11,0.0,0.0,78,0.00,,,0.00,Wunderground v.1.15,2013-01-03 01:13:00,
2013-01-02 19:18:00,24.5,19.8,30.28,North,11,0.0,0.0,82,0.00,,,0.00,Wunderground v.1.15,2013-01-03 01:18:00,
2013-01-02 19:23:00,24.5,19.5,30.28,North,11,0.0,0.0,81,0.00,,,0.00,Wunderground v.1.15,2013-01-03 01:23:00,
2013-01-02 19:28:00,24.4,19.7,30.28,NNE,12,0.0,0.0,82,0.00,,,0.00,Wunderground v.1.15,2013-01-03 01:28:00,
2013-01-02 19:33:00,25.0,19.7,30.28,NNE,12,0.0,0.0,80,0.00,,,0.00,Wunderground v.1.15,2013-01-03 01:33:00,
2013-01-02 19:38:00,25.3,20.0,30.28,North,11,0.0,0.0,80,0.00,,,0.00,Wunderground v.1.15,2013-01-03 01:38:00,
2013-01-02 19:43:00,25.2,19.9,30.28,North,11,0.0,0.0,80,0.00,,,0.00,Wunderground v.1.15,2013-01-03 01:43:00,
2013-01-02 19:48:00,24.9,19.9,30.28,North,11,0.0,0.0,81,0.00,,,0.00,Wunderground v.1.15,2013-01-03 01:48:00,
2013-01-02 19:53:00,24.4,19.7,30.28,North,11,0.0,0.0,82,0.00,,,0.00,Wunderground v.1.15,2013-01-03 01:53:00,
2013-01-02 19:58:00,24.1,20.0,30.29,North,11,0.0,0.0,84,0.00,,,0.00,Wunderground v.1.15,2013-01-03 01:58:00,
2013-01-02 20:03:00,23.8,19.7,30.28,NNE,12,0.0,0.0,84,0.00,,,0.00,Wunderground v.1.15,2013-01-03 02:03:00,
2013-01-02 20:08:00,23.5,19.4,30.28,North,11,0.0,0.0,84,0.00,,,0.00,Wunderground v.1.15,2013-01-03 02:08:00,
2013-01-02 20:13:00,23.1,19.3,30.28,NNE,12,0.0,0.0,85,0.00,,,0.00,Wunderground v.1.15,2013-01-03 02:13:00,
2013-01-02 20:18:00,22.9,19.3,30.28,North,11,0.0,0.0,86,0.00,,,0.00,Wunderground v.1.15,2013-01-03 02:18:00,
2013-01-02 20:23:00,23.1,19.8,30.28,North,11,0.0,0.0,87,0.00,,,0.00,Wunderground v.1.15,2013-01-03 02:23:00,
2013-01-02 20:28:00,23.1,19.8,30.28,North,11,0.0,0.0,87,0.00,,,0.00,Wunderground v.1.15,2013-01-03 02:28:00,
2013-01-02 20:33:00,23.2,19.9,30.28,North,11,0.0,0.0,87,0.00,,,0.00,Wunderground v.1.15,2013-01-03 02:33:00,
2013-01-02 20:38:00,23.3,20.0,30.28,NNE,12,0.0,0.0,87,0.00,,,0.00,Wunderground v.1.15,2013-01-03 02:38:00,
2013-01-02 20:43:00,23.2,19.9,30.28,NNE,12,0.0,0.0,87,0.00,,,0.00,Wunderground v.1.15,2013-01-03 02:43:00,
2013-01-02 20:48:00,23.1,19.8,30.28,North,11,0.0,0.0,87,0.00,,,0.00,Wunderground v.1.15,2013-01-03 02:48:00,
2013-01-02 20:53:00,23.0,20.0,30.29,NNE,12,0.0,0.0,88,0.00,,,0.00,Wunderground v.1.15,2013-01-03 02:53:00,
2013-01-02 20:58:00,23.1,19.8,30.28,NNE,12,0.0,0.0,87,0.00,,,0.00,Wunderground v.1.15,2013-01-03 02:58:00,
2013-01-02 21:03:00,23.2,19.6,30.28,North,11,0.0,0.0,86,0.00,,,0.00,Wunderground v.1.15,2013-01-03 03:03:00,
2013-01-02 21:08:00,23.0,19.2,30.29,NNE,12,0.0,0.0,85,0.00,,,0.00,Wunderground v.1.15,2013-01-03 03:08:00,
2013-01-02 21:13:00,22.7,18.9,30.29,North,11,0.0,0.0,85,0.00,,,0.00,Wunderground v.1.15,2013-01-03 03:13:00,
2013-01-02 21:18:00,22.4,18.8,30.28,North,11,0.0,0.0,86,0.00,,,0.00,Wunderground v.1.15,2013-01-03 03:18:00,
2013-01-02 21:23:00,22.4,19.6,30.28,NNE,12,0.0,0.0,89,0.00,,,0.00,Wunderground v.1.15,2013-01-03 03:23:00,
2013-01-02 21:28:00,22.6,19.8,30.28,North,11,0.0,0.0,89,0.00,,,0.00,Wunderground v.1.15,2013-01-03 03:28:00,
2013-01-02 21:33:00,22.7,19.9,30.29,North,11,0.0,0.0,89,0.00,,,0.00,Wunderground v.1.15,2013-01-03 03:33:00,
2013-01-02 21:39:00,22.8,19.5,30.29,North,11,0.0,0.0,87,0.00,,,0.00,Wunderground v.1.15,2013-01-03 03:39:00,
2013-01-02 21:44:00,22.9,19.6,30.29,North,11,0.0,0.0,87,0.00,,,0.00,Wunderground v.1.15,2013-01-03 03:44:00,
2013-01-02 21:49:00,22.8,19.5,30.29,North,11,0.0,0.0,87,0.00,,,0.00,Wunderground v.1.15,2013-01-03 03:49:00,
2013-01-02 21:54:00,22.7,19.7,30.29,North,11,0.0,0.0,88,0.00,,,0.00,Wunderground v.1.15,2013-01-03 03:54:00,
2013-01-02 21:59:00,22.5,19.5,30.29,North,11,0.0,0.0,88,0.00,,,0.00,Wunderground v.1.15,2013-01-03 03:59:00,
2013-01-02 22:04:00,22.4,19.4,30.30,North,11,0.0,0.0,88,0.00,,,0.00,Wunderground v.1.15,2013-01-03 04:04:00,
2013-01-02 22:09:00,22.4,19.4,30.30,NNE,12,0.0,0.0,88,0.00,,,0.00,Wunderground v.1.15,2013-01-03 04:09:00,
2013-01-02 22:14:00,22.2,19.5,30.30,North,11,0.0,0.0,89,0.00,,,0.00,Wunderground v.1.15,2013-01-03 04:14:00,
2013-01-02 22:19:00,22.2,19.5,30.30,NNE,12,0.0,0.0,89,0.00,,,0.00,Wunderground v.1.15,2013-01-03 04:19:00,
2013-01-02 22:24:00,22.1,19.4,30.29,North,11,0.0,0.0,89,0.00,,,0.00,Wunderground v.1.15,2013-01-03 04:24:00,
2013-01-02 22:29:00,22.1,19.4,30.29,North,11,0.0,0.0,89,0.00,,,0.00,Wunderground v.1.15,2013-01-03 04:29:00,
2013-01-02 22:34:00,21.8,19.1,30.29,North,11,0.0,0.0,89,0.00,,,0.00,Wunderground v.1.15,2013-01-03 04:34:00,
2013-01-02 22:39:00,21.6,19.1,30.29,NNE,12,0.0,0.0,90,0.00,,,0.00,Wunderground v.1.15,2013-01-03 04:39:00,
2013-01-02 22:44:00,21.5,19.0,30.30,NNE,12,0.0,0.0,90,0.00,,,0.00,Wunderground v.1.15,2013-01-03 04:44:00,
2013-01-02 22:49:00,21.3,18.8,30.29,NNE,12,0.0,0.0,90,0.00,,,0.00,Wunderground v.1.15,2013-01-03 04:49:00,
2013-01-02 22:54:00,21.1,18.6,30.29,North,11,0.0,0.0,90,0.00,,,0.00,Wunderground v.1.15,2013-01-03 04:54:00,
2013-01-02 22:59:00,20.7,18.2,30.29,NNE,12,0.0,0.0,90,0.00,,,0.00,Wunderground v.1.15,2013-01-03 04:59:00,
2013-01-02 23:00:00,20.7,18.2,30.29,North,11,0.0,0.0,90,0.00,,,0.00,Wunderground v.1.15,2013-01-03 05:00:00,
2013-01-02 23:02:00,20.7,18.2,30.30,North,11,0.0,0.0,90,0.00,,,0.00,Wunderground v.1.15,2013-01-03 05:02:00,
2013-01-02 23:03:00,20.7,18.5,30.30,North,11,0.0,0.0,91,0.00,,,0.00,Wunderground v.1.15,2013-01-03 05:03:00,
2013-01-02 23:04:00,20.8,18.6,30.30,North,11,0.0,0.0,91,0.00,,,0.00,Wunderground v.1.15,2013-01-03 05:04:00,
2013-01-02 23:09:00,20.8,18.6,30.30,North,11,0.0,0.0,91,0.00,,,0.00,Wunderground v.1.15,2013-01-03 05:09:00,
2013-01-02 23:14:00,20.6,18.4,30.30,North,11,0.0,0.0,91,0.00,,,0.00,Wunderground v.1.15,2013-01-03 05:14:00,
2013-01-02 23:19:00,20.4,18.2,30.30,North,11,0.0,0.0,91,0.00,,,0.00,Wunderground v.1.15,2013-01-03 05:19:00,
2013-01-02 23:24:00,20.4,18.4,30.30,NNE,12,0.0,0.0,92,0.00,,,0.00,Wunderground v.1.15,2013-01-03 05:24:00,
2013-01-02 23:29:00,20.5,18.3,30.29,North,11,0.0,0.0,91,0.00,,,0.00,Wunderground v.1.15,2013-01-03 05:29:00,
2013-01-02 23:34:00,20.5,18.0,30.30,North,11,0.0,0.0,90,0.00,,,0.00,Wunderground v.1.15,2013-01-03 05:34:00,
2013-01-02 23:38:00,20.5,18.0,30.29,North,11,0.0,0.0,90,0.00,,,0.00,Wunderground v.1.15,2013-01-03 05:38:00,
2013-01-02 23:43:00,20.4,17.9,30.30,NNE,12,0.0,0.0,90,0.00,,,0.00,Wunderground v.1.15,2013-01-03 05:43:00,
2013-01-02 23:48:00,20.2,17.7,30.29,North,11,0.0,0.0,90,0.00,,,0.00,Wunderground v.1.15,2013-01-03 05:48:00,
2013-01-02 23:54:00,19.9,17.4,30.29,North,11,0.0,0.0,90,0.00,,,0.00,Wunderground v.1.15,2013-01-03 05:54:00,
2013-01-02 23:59:00,19.8,17.6,30.29,North,11,0.0,0.0,91,0.00,,,0.00,Wunderground v.1.15,2013-01-03 05:59:00,